This is the latest recevied weather packets stored in our database for station/object PY2SDN-13. If no packets are shown the sender has not sent any weather packets the latest 10 day(s).
| Time | Temp. | Humidity | Pressure | Rain* | Wind** | Luminosity | Snow |
|---|---|---|---|---|---|---|---|
| 1777905003 | 29.44° C | 26% | 1012.8 hPa | 0 mm | - | 0 W/m² | - |
| 1777904103 | 27.78° C | 26% | 1012.9 hPa | 0 mm | - | 0 W/m² | - |
| 1777903203 | 28.89° C | 26% | 1013.2 hPa | 0 mm | - | 0 W/m² | - |
| 1777902303 | 26.67° C | 26% | 1013.5 hPa | 0 mm | - | 0 W/m² | - |
| 1777901403 | 26.11° C | 26% | 1013.6 hPa | 0 mm | - | 0 W/m² | - |
| 1777900504 | 28.33° C | 26% | 1013.7 hPa | 0 mm | - | 0 W/m² | - |
| 1777899604 | 28.33° C | 26% | 1013.9 hPa | 0 mm | - | 0 W/m² | - |
| 1777898704 | 28.89° C | 26% | 1013.9 hPa | 0 mm | - | 0 W/m² | - |
| 1777897804 | 28.89° C | 26% | 1013.7 hPa | 0 mm | - | 0 W/m² | - |
| 1777896904 | 28.33° C | 26% | 1013.9 hPa | 0 mm | - | 0 W/m² | - |
| 1777896004 | 29.44° C | 26% | 1013.7 hPa | 0 mm | - | 0 W/m² | - |
| 1777895104 | 29.44° C | 26% | 1013.7 hPa | 0 mm | - | 0 W/m² | - |
| 1777894204 | 27.22° C | 26% | 1013.7 hPa | 0 mm | - | 0 W/m² | - |
| 1777893304 | 25° C | 26% | 1013.4 hPa | 0 mm | - | 0 W/m² | - |
| 1777892404 | 22.22° C | 26% | 1013.2 hPa | 0 mm | - | 0 W/m² | - |
| 1777891504 | 20° C | 26% | 1013.3 hPa | 0 mm | - | 0 W/m² | - |
| 1777890604 | 19.44° C | 26% | 1013.3 hPa | 0 mm | - | 0 W/m² | - |
| 1777889704 | 18.89° C | 26% | 1013.1 hPa | 0 mm | - | 0 W/m² | - |
| 1777888804 | 18.33° C | 26% | 1013 hPa | 0 mm | - | 0 W/m² | - |
| 1777887904 | 17.78° C | 26% | 1012.7 hPa | 0 mm | - | 0 W/m² | - |
| 1777887004 | 17.78° C | 26% | 1012.6 hPa | 0 mm | - | 0 W/m² | - |
| 1777886104 | 17.78° C | 26% | 1012.6 hPa | 0 mm | - | 0 W/m² | - |
| 1777885204 | 17.78° C | 26% | 1012.5 hPa | 0 mm | - | 0 W/m² | - |
| 1777884304 | 17.78° C | 26% | 1012.3 hPa | 0 mm | - | 0 W/m² | - |
| 1777883409 | 17.78° C | 26% | 1012 hPa | 0 mm | - | 0 W/m² | - |
* Rain latest hour (hover to see other rain measurements)
** Current wind speed in m/s (hover to see current wind gust speed)